[[{"header":{"parameterUnit":"m.s-1","parameterCategory":1,"la1":30.2991,"la2":30.254,"lo1":-89.0895,"lo2":-89.0444,"dy":0.0017,"dx":0.0017,"nx":28,"ny":28,"refTime":"2025-06-18T03:00:00:Z","depth":0,"parameterNumber":2,"parameterNumberName":"U-component_of_WINDS"},"data":[0,0,0,0,0,0,0,0,0,0,0,0,0,0,0,0,0,0,0,0,0,0,0,0,0,0,0,0,0,0,0,0,0,0,0,0,0,0,0,0,0,0,0,0,0,0,0,0,0,0,0,0,0,0,0,0,0,0,-0.3113,-0.3112,0,-0.2955,-0.2953,-0.2951,-0.2886,-0.2886,-0.2886,-0.2887,-0.2719,-0.2715,-0.271,0,0,0,0,0,0,0,0,0,0,0,0,0,-0.3356,-0.3352,-0.3114,-0.3112,-0.311,-0.2955,-0.2953,-0.2951,-0.2886,-0.2886,-0.2887,-0.2887,-0.2721,-0.2715,-0.2709,0,0,0,0,0,0,0,0,0,0,0,0,0,-0.3229,-0.335,-0.3114,-0.3059,-0.3052,-0.2956,-0.2953,-0.295,-0.2886,-0.2886,-0.2887,-0.2887,-0.2723,-0.2716,-0.2709,-0.2654,0,0,-0.2687,-0.2684,0,0,0,0,0,0,0,0,-0.3236,-0.322,-0.3069,-0.3062,-0.3055,-0.2941,-0.2977,-0.2851,-0.2886,-0.2949,-0.2887,-0.2887,-0.2792,-0.2779,-0.2748,-0.2646,-0.2639,-0.2686,-0.2682,-0.2679,-0.2677,0,0,0,0,0,0,0,-0.3245,-0.3227,-0.3051,-0.3067,-0.3058,-0.304,-0.3023,-0.2953,-0.2869,-0.2943,-0.2938,-0.2921,-0.2788,-0.2755,-0.2744,-0.2636,-0.2686,-0.268,-0.2675,-0.2673,-0.2482,-0.2481,0,0,0,0,0,0,-0.3264,-0.3234,-0.3056,-0.3046,-0.3149,-0.3036,-0.3016,-0.2977,-0.287,-0.2854,-0.292,-0.2918,-0.2767,-0.2752,-0.2738,-0.2667,-0.2679,-0.2672,-0.2668,-0.2483,-0.2482,-0.2481,0,0,0,0,0,0,-0.3269,-0.3248,-0.3062,-0.3139,-0.3114,-0.3031,-0.2987,-0.2973,-0.294,-0.2853,-0.2837,-0.2902,-0.2767,-0.2748,-0.2676,-0.266,-0.2669,-0.2662,-0.2484,-0.2482,-0.2481,-0.2524,0,0,0,0,0,0,-0.3276,-0.3251,-0.323,-0.3139,-0.311,-0.3004,-0.2986,-0.297,-0.2929,-0.2924,-0.2831,-0.2816,-0.2766,-0.2687,-0.2669,-0.265,-0.2657,-0.2485,-0.2483,-0.2482,-0.2524,-0.2525,-0.2526,0,0,0,0,0,-0.3285,-0.3247,-0.3229,-0.3208,-0.3082,-0.3003,-0.2987,-0.2931,-0.2928,-0.2906,-0.285,-0.2819,-0.2665,-0.268,-0.2659,-0.2638,-0.2485,-0.2483,-0.2482,-0.2524,-0.2525,-0.2526,0,0,0,0,0,0,-0.3336,-0.3234,-0.3213,-0.3144,-0.3084,-0.2992,-0.2962,-0.2934,-0.2871,-0.2869,-0.2801,-0.2781,-0.2714,-0.2669,-0.2688,-0.258,-0.2573,-0.2567,-0.2612,-0.2612,-0.2613,-0.2624,-0.2651,0,0,0,0,0,-0.334,-0.3286,-0.3199,-0.3146,-0.3117,-0.3046,-0.3009,-0.2972,-0.2905,-0.2878,-0.2817,-0.2752,-0.2688,-0.2648,-0.2585,-0.2518,-0.2496,-0.2493,-0.2494,-0.2495,-0.249,-0.2451,-0.2449,-0.2475,-0.2475,-0.2475,0,0,-0.3346,-0.3283,-0.3253,-0.3155,-0.3103,-0.3048,-0.3024,-0.2966,-0.2923,-0.2868,-0.2797,-0.275,-0.2673,-0.2604,-0.257,-0.2563,-0.2479,-0.2493,-0.2495,-0.2489,-0.2449,-0.2447,-0.2445,-0.2474,-0.2474,-0.2475,0,0,-0.3328,-0.3276,-0.3227,-0.3176,-0.3099,-0.3052,-0.3041,-0.2954,-0.2922,-0.285,-0.2808,-0.2756,-0.2648,-0.2595,-0.2554,-0.2519,-0.2489,-0.2501,-0.2504,-0.2467,-0.2465,-0.2463,-0.2449,-0.2446,-0.2496,-0.2496,-0.2497,0,-0.3344,-0.326,-0.3205,-0.3149,-0.3107,-0.3058,-0.3008,-0.2961,-0.2866,-0.2838,-0.2833,-0.2698,-0.2643,-0.256,-0.2552,-0.2521,-0.2505,-0.251,-0.247,-0.2467,-0.2464,-0.2451,-0.2446,-0.2498,-0.2498,-0.2498,-0.2498,0,-0.3284,-0.3226,-0.3196,-0.3108,-0.3063,-0.301,-0.2946,-0.2907,-0.2874,-0.2828,-0.2755,-0.2687,-0.261,-0.2588,-0.2555,-0.2501,-0.25,-0.2484,-0.2475,-0.2465,-0.2451,-0.2445,-0.2501,-0.25,-0.25,-0.2499,0,0,-0.3291,-0.3176,-0.3165,-0.3125,-0.3038,-0.2991,-0.2937,-0.2863,-0.283,-0.2768,-0.2719,-0.2631,-0.2616,-0.257,-0.253,-0.2498,-0.2474,-0.2485,-0.2483,-0.2485,-0.241,-0.2422,-0.2417,-0.2455,-0.2454,-0.2453,-0.2416,0,-0.326,-0.3161,-0.3111,-0.3033,-0.2979,-0.2933,-0.2885,-0.2825,-0.2781,-0.2728,-0.2678,-0.2616,-0.2601,-0.2573,-0.254,-0.2484,-0.2458,-0.2487,-0.2407,-0.2405,-0.2426,-0.2409,-0.2421,-0.239,-0.241,-0.241,-0.2409,0,-0.3211,-0.3151,-0.3068,-0.2988,-0.2964,-0.2922,-0.2851,-0.2801,-0.2733,-0.2703,-0.2653,-0.2614,-0.2554,-0.2552,-0.2467,-0.2487,-0.2452,-0.242,-0.2418,-0.2406,-0.2405,-0.2397,-0.2379,-0.2374,-0.24,-0.2401,-0.2401,0,-0.3223,-0.3122,-0.3059,-0.3027,-0.2932,-0.2904,-0.2863,-0.2795,-0.2755,-0.2693,-0.2666,-0.2597,-0.2559,-0.2506,-0.245,-0.2454,-0.237,-0.2363,-0.2342,-0.2344,-0.2325,-0.2326,-0.23,-0.2305,-0.2305,-0.2305,-0.2305,0,-0.3193,-0.3144,-0.3064,-0.3025,-0.2969,-0.2912,-0.2857,-0.2812,-0.2753,-0.2704,-0.266,-0.2615,-0.2545,-0.2491,-0.2447,-0.2383,-0.2366,-0.2339,-0.2327,-0.2342,-0.2345,-0.2316,-0.2316,-0.2304,-0.2304,-0.2305,-0.2305,0,-0.3196,-0.3141,-0.307,-0.2987,-0.2965,-0.2927,-0.2856,-0.2816,-0.2771,-0.271,-0.2692,-0.262,-0.2554,-0.2494,-0.2405,-0.2376,-0.2311,-0.2297,-0.2334,-0.2328,-0.231,-0.2312,-0.2262,-0.2252,-0.2266,-0.2266,-0.2266,0,-0.318,-0.3141,-0.3056,-0.3021,-0.2982,-0.2926,-0.2885,-0.2828,-0.2787,-0.2708,-0.2677,-0.2609,-0.2551,-0.2448,-0.2386,-0.2319,-0.2302,-0.2289,-0.2291,-0.2307,-0.23,-0.2303,-0.2298,-0.2289,-0.2289,-0.229,-0.229,0,-0.3157,-0.3132,-0.3076,-0.301,-0.2964,-0.2909,-0.2853,-0.2826,-0.2758,-0.2715,-0.2648,-0.2603,-0.2515,-0.2447,-0.2373,-0.2329,-0.2297,-0.229,-0.2281,-0.2295,-0.2318,-0.2304,-0.2335,-0.2291,-0.2291,-0.2291,-0.2291,-0.2291,-0.3148,-0.3112,-0.3047,-0.2986,-0.2939,-0.2888,-0.2847,-0.2798,-0.2742,-0.2666,-0.2636,-0.2568,-0.2501,-0.2399,-0.2356,-0.2301,-0.2295,-0.2282,-0.2279,-0.2276,-0.2279,-0.2329,-0.2288,-0.2288,-0.2287,-0.2287,-0.2287,0,-0.3122,-0.3078,-0.3023,-0.2947,-0.29,-0.2878,-0.2815,-0.2775,-0.2717,-0.2659,-0.2604,-0.2527,-0.2462,-0.2397,-0.2328,-0.2296,-0.228,-0.228,-0.228,-0.2271,-0.2289,-0.2303,-0.2294,-0.2294,-0.2294,-0.2294,-0.2294,-0.2294,-0.3102,-0.304,-0.3008,-0.2922,-0.2878,-0.2813,-0.2779,-0.2732,-0.2685,-0.2602,-0.2549,-0.2508,-0.2446,-0.2373,-0.2312,-0.2294,-0.227,-0.2273,-0.2252,-0.2269,-0.2269,-0.2269,-0.2282,-0.2269,-0.2269,-0.2238,-0.2237,-0.2237]},{"header":{"parameterUnit":"m.s-1","parameterCategory":1,"la1":30.2991,"la2":30.254,"lo1":-89.0895,"lo2":-89.0444,"dy":0.0017,"dx":0.0017,"nx":28,"ny":28,"refTime":"2025-06-18T03:00:00:Z","depth":0,"parameterNumber":3,"parameterNumberName":"V-component_of_WINDS"},"data":[0,0,0,0,0,0,0,0,0,0,0,0,0,0,0,0,0,0,0,0,0,0,0,0,0,0,0,0,0,0,0,0,0,0,0,0,0,0,0,0,0,0,0,0,0,0,0,0,0,0,0,0,0,0,0,0,0,0,4.547,4.547,0,4.5483,4.5483,4.5483,4.5434,4.5433,4.5431,4.543,4.5441,4.5442,4.5444,0,0,0,0,0,0,0,0,0,0,0,0,0,4.5401,4.5403,4.547,4.547,4.547,4.5483,4.5483,4.5483,4.5434,4.5433,4.5431,4.5429,4.544,4.5442,4.5444,0,0,0,0,0,0,0,0,0,0,0,0,0,4.5424,4.5403,4.547,4.5448,4.5446,4.5483,4.5483,4.5483,4.5435,4.5433,4.543,4.5428,4.5439,4.5442,4.5444,4.5503,0,0,4.5452,4.5453,0,0,0,0,0,0,0,0,4.5423,4.5427,4.5451,4.5449,4.5447,4.5455,4.5462,4.5489,4.5435,4.5439,4.543,4.5427,4.5447,4.5449,4.5456,4.5503,4.5504,4.5452,4.5453,4.5454,4.5455,0,0,0,0,0,0,0,4.5421,4.5426,4.5475,4.5451,4.5449,4.5436,4.5437,4.5467,4.5455,4.5438,4.5435,4.5437,4.5445,4.5453,4.5455,4.5504,4.5452,4.5454,4.5455,4.5456,4.56,4.5602,0,0,0,0,0,0,4.5423,4.5425,4.5474,4.5475,4.543,4.5439,4.544,4.5454,4.5454,4.5452,4.5439,4.5435,4.545,4.5453,4.5456,4.5524,4.5454,4.5457,4.5458,4.5598,4.56,4.5603,0,0,0,0,0,0,4.5422,4.5428,4.5474,4.5449,4.5454,4.5443,4.5459,4.5456,4.5464,4.5455,4.5452,4.545,4.5449,4.5452,4.5491,4.5524,4.5458,4.546,4.5595,4.5598,4.5602,4.5662,0,0,0,0,0,0,4.542,4.5428,4.545,4.545,4.5456,4.551,4.5461,4.5458,4.5468,4.5463,4.5464,4.5462,4.5447,4.5488,4.5494,4.5526,4.5462,4.5592,4.5596,4.5601,4.5657,4.5667,4.5675,0,0,0,0,0,4.5418,4.5466,4.5452,4.5458,4.5484,4.5512,4.5515,4.5498,4.5471,4.5493,4.5488,4.5462,4.552,4.5493,4.5499,4.5532,4.559,4.5595,4.56,4.5653,4.5665,4.5675,0,0,0,0,0,0,4.5469,4.5466,4.545,4.55,4.5507,4.5504,4.5531,4.5511,4.5526,4.552,4.5497,4.5498,4.5541,4.554,4.551,4.5589,4.555,4.5557,4.5587,4.5599,4.5608,4.5607,4.5464,0,0,0,0,0,4.5487,4.5511,4.5506,4.5551,4.5555,4.5543,4.5555,4.5541,4.5547,4.555,4.5547,4.5553,4.5572,4.5586,4.5603,4.5656,4.5656,4.5682,4.5692,4.5699,4.5705,4.5734,4.5745,4.562,4.562,4.562,0,0,4.5523,4.5524,4.554,4.5561,4.5565,4.559,4.5546,4.5574,4.5592,4.5553,4.5591,4.5589,4.5594,4.5641,4.5662,4.5642,4.574,4.5706,4.5712,4.5714,4.574,4.5752,4.5763,4.5624,4.5623,4.5623,0,0,4.5601,4.5604,4.5642,4.5647,4.5654,4.5645,4.5655,4.5655,4.5653,4.569,4.5661,4.5682,4.5716,4.5722,4.5729,4.581,4.5787,4.5816,4.5865,4.5892,4.5902,4.5911,4.594,4.595,4.5822,4.5822,4.5822,0,4.5644,4.5682,4.5663,4.5694,4.5704,4.5671,4.5709,4.5714,4.5726,4.5733,4.5711,4.5754,4.5755,4.5803,4.5823,4.583,4.5839,4.5816,4.5903,4.5911,4.5919,4.5946,4.5957,4.5826,4.5825,4.5825,4.5825,0,4.5735,4.5761,4.579,4.5804,4.5817,4.5851,4.5837,4.5853,4.5838,4.5832,4.587,4.5871,4.5888,4.5898,4.5884,4.5944,4.5931,4.5907,4.5867,4.5935,4.596,4.597,4.5831,4.583,4.5828,4.5828,0,0,4.5845,4.5849,4.586,4.5866,4.5871,4.5891,4.5923,4.5941,4.5955,4.5964,4.599,4.602,4.5998,4.6006,4.5991,4.6016,4.608,4.5988,4.5987,4.6005,4.6147,4.6165,4.6178,4.6065,4.6067,4.6068,4.6146,0,4.5922,4.5978,4.5963,4.6019,4.6043,4.6012,4.604,4.6047,4.6042,4.6061,4.6055,4.6077,4.6045,4.605,4.6073,4.6068,4.6108,4.6062,4.6089,4.609,4.6088,4.6191,4.6211,4.6284,4.6156,4.6157,4.6159,0,4.6019,4.6033,4.6092,4.6094,4.6103,4.6129,4.6144,4.6163,4.617,4.6164,4.6174,4.6155,4.6186,4.6147,4.619,4.6159,4.6169,4.6168,4.617,4.6172,4.6128,4.6195,4.6307,4.6318,4.6174,4.6173,4.6172,0,4.6093,4.6127,4.6167,4.6173,4.6176,4.6195,4.6197,4.6202,4.6213,4.6226,4.6234,4.625,4.6259,4.6272,4.6257,4.623,4.6302,4.6262,4.6298,4.6299,4.6314,4.6314,4.6429,4.6321,4.6321,4.6321,4.6321,0,4.618,4.6218,4.6201,4.6225,4.6266,4.6248,4.6288,4.6287,4.6291,4.6314,4.6288,4.631,4.629,4.631,4.6299,4.6336,4.634,4.6336,4.6333,4.6339,4.6339,4.6345,4.6339,4.6324,4.6323,4.6323,4.6322,0,4.6271,4.6261,4.6302,4.6302,4.6303,4.6333,4.6333,4.6355,4.6349,4.6379,4.6384,4.6374,4.6397,4.6384,4.6406,4.6399,4.6447,4.6437,4.6445,4.6443,4.648,4.6477,4.6603,4.6619,4.6501,4.6502,4.6503,0,4.6327,4.6355,4.6359,4.6373,4.6377,4.64,4.6412,4.6395,4.6409,4.6419,4.644,4.646,4.6475,4.6513,4.6507,4.6524,4.6514,4.6557,4.6516,4.6521,4.6514,4.6513,4.6515,4.6565,4.6566,4.6568,4.6568,0,4.6428,4.6422,4.6441,4.6459,4.6474,4.6487,4.6497,4.651,4.6494,4.651,4.6533,4.6545,4.6569,4.659,4.6604,4.6606,4.6584,4.6582,4.6591,4.6597,4.6601,4.6599,4.6468,4.6579,4.6578,4.6577,4.6576,4.6576,4.6502,4.6526,4.6533,4.6555,4.6561,4.6572,4.6593,4.659,4.6609,4.6628,4.6616,4.6644,4.6649,4.6667,4.6671,4.6692,4.6674,4.6688,4.6691,4.6695,4.67,4.6598,4.6695,4.6694,4.6694,4.6694,4.6694,0,4.6602,4.6605,4.6625,4.6642,4.6659,4.6639,4.6649,4.6665,4.669,4.6697,4.6713,4.674,4.676,4.6756,4.6774,4.6791,4.6782,4.6797,4.6795,4.6796,4.6715,4.6705,4.6804,4.6804,4.6804,4.6804,4.6804,4.6804,4.6656,4.6695,4.669,4.6732,4.6734,4.6761,4.6769,4.6779,4.6785,4.6816,4.6833,4.683,4.6833,4.6851,4.6869,4.6867,4.6875,4.6893,4.6888,4.6812,4.6801,4.6791,4.6781,4.6895,4.6895,4.6966,4.6967,4.6968]}]]